[[{"header":{"parameterUnit":"m.s-1","parameterCategory":2,"la1":30.2992,"la2":30.254,"lo1":-89.0895,"lo2":-89.0443,"dy":0.0025,"dx":0.0025,"nx":19,"ny":19,"refTime":"2026-05-08T21:00:00:Z","depth":"0","parameterNumber":2,"parameterNumberName":"U-component_of_CURRENTS"},"data":[0,0,0,0.1211,0.1212,0.1234,0.1234,0.1229,0.1229,0,0,0,0,0,0,0,0,0,0,0,0.1197,0.1197,0.1211,0.1212,0.1234,0.1234,0.1229,0.1229,0,0,0,0,0,0,0,0,0,0,0,0.1197,0.1197,0.1197,0.1212,0.1234,0.1234,0.1229,0.1218,0,0,0,0,0,0,0,0,0,0,0.1201,0.1191,0.1197,0.1197,0.1213,0.1234,0.1234,0.1218,0.1219,0.1214,0,0.1221,0,0.1233,0.1229,0.1229,0,0,0,0.1201,0.1191,0.1204,0.1197,0.1213,0.1234,0.1221,0.1219,0.122,0.1215,0.1221,0.1222,0.1233,0.1229,0.1229,0.1261,0.1262,0,0,0.12,0.1192,0.1203,0.1205,0.1223,0.122,0.1222,0.122,0.1217,0.1221,0.1222,0.1233,0.1229,0.1229,0.1261,0.1261,0,0,0,0.1204,0.1191,0.1204,0.1205,0.1215,0.1221,0.1223,0.1217,0.1224,0.1222,0.1233,0.1229,0.1229,0.1261,0.1261,0.1293,0,0,0,0.1203,0.1194,0.1204,0.1198,0.1216,0.1221,0.122,0.1224,0.1225,0.1233,0.1229,0.1229,0.126,0.1261,0.1292,0.1309,0,0,0,0.1195,0.1193,0.1199,0.1197,0.1214,0.1221,0.1227,0.1224,0.1232,0.1229,0.1229,0.126,0.1261,0.129,0.1306,0.135,0,0,0,0.1181,0.1183,0.1198,0.1206,0.1213,0.1234,0.1227,0.1236,0.1236,0.1229,0.126,0.1261,0.129,0.1305,0.1348,0.132,0.1327,0,0,0.1175,0.1182,0.1188,0.1203,0.1223,0.123,0.1254,0.1251,0.1248,0.1256,0.1257,0.1292,0.1306,0.135,0.1368,0.1373,0,0,0,0.118,0.1185,0.1193,0.1211,0.1231,0.126,0.1262,0.1273,0.1291,0.1255,0.13,0.1308,0.1335,0.1313,0.1318,0.1266,0.1265,0.1265,0.1265,0.1148,0.1173,0.1188,0.1222,0.1242,0.128,0.1306,0.1324,0.1309,0.133,0.134,0.1403,0.138,0.1383,0.133,0.1345,0.1345,0.1345,0.1345,0.1143,0.1152,0.1195,0.1218,0.1262,0.1291,0.1349,0.1361,0.141,0.1382,0.1406,0.1355,0.139,0.1332,0.1347,0.1347,0.1346,0.1346,0.1346,0.1116,0.1125,0.1152,0.1199,0.1249,0.1302,0.1355,0.1405,0.1442,0.1471,0.1456,0.1454,0.1399,0.1487,0.1487,0.1487,0.1487,0.1488,0.1488,0.1072,0.1104,0.1117,0.1178,0.1199,0.126,0.1359,0.1407,0.148,0.1496,0.1496,0.1414,0.1446,0.1436,0.1492,0.1491,0.1491,0.149,0.149,0.1026,0.1047,0.1057,0.1073,0.113,0.1134,0.1262,0.1373,0.1463,0.1497,0.1459,0.1513,0.1504,0.1499,0.149,0.1557,0.1557,0.1557,0.1557,0.0982,0.1,0.0978,0.0978,0.1009,0.1063,0.1066,0.1186,0.1351,0.1398,0.1458,0.1402,0.1401,0.1383,0.138,0.1368,0.1402,0.1402,0.1402,0.0945,0.0946,0.0894,0.0907,0.093,0.0955,0.09,0.0936,0.121,0.1391,0.1396,0.1402,0.1314,0.1317,0.1281,0.1282,0.1258,0,0]},{"header":{"parameterUnit":"m.s-1","parameterCategory":2,"la1":30.2992,"la2":30.254,"lo1":-89.0895,"lo2":-89.0443,"dy":0.0025,"dx":0.0025,"nx":19,"ny":19,"refTime":"2026-05-08T21:00:00:Z","depth":"0","parameterNumber":3,"parameterNumberName":"V-component_of_CURRENTS"},"data":[0,0,0,-0.0221,-0.0222,-0.0259,-0.0259,-0.028,-0.028,0,0,0,0,0,0,0,0,0,0,0,-0.0204,-0.0204,-0.0221,-0.0222,-0.0259,-0.0259,-0.028,-0.028,0,0,0,0,0,0,0,0,0,0,0,-0.0204,-0.0204,-0.0204,-0.0222,-0.0259,-0.0259,-0.028,-0.0259,0,0,0,0,0,0,0,0,0,0,-0.0227,-0.0208,-0.0204,-0.0204,-0.0222,-0.0259,-0.0259,-0.0258,-0.026,-0.0254,0,-0.0255,0,-0.0268,-0.028,-0.028,0,0,0,-0.0225,-0.0207,-0.0222,-0.0204,-0.0222,-0.0259,-0.0243,-0.026,-0.0262,-0.0256,-0.0256,-0.0257,-0.0268,-0.028,-0.028,-0.0259,-0.0258,0,0,-0.0223,-0.0207,-0.022,-0.0223,-0.0226,-0.0242,-0.0244,-0.0261,-0.0257,-0.0256,-0.0258,-0.0268,-0.028,-0.028,-0.0259,-0.0259,0,0,0,-0.0215,-0.0205,-0.022,-0.0222,-0.0231,-0.0243,-0.0246,-0.0256,-0.0263,-0.0258,-0.0269,-0.028,-0.028,-0.0259,-0.0259,-0.0227,0,0,0,-0.0214,-0.02,-0.0219,-0.021,-0.023,-0.0246,-0.024,-0.0262,-0.0264,-0.0268,-0.028,-0.0281,-0.026,-0.0259,-0.0229,-0.0216,0,0,0,-0.0203,-0.0199,-0.0203,-0.0209,-0.0225,-0.0247,-0.0254,-0.0263,-0.027,-0.028,-0.0281,-0.026,-0.0259,-0.023,-0.0219,-0.0206,0,0,0,-0.0187,-0.017,-0.0202,-0.0186,-0.0224,-0.0223,-0.0254,-0.0257,-0.0261,-0.028,-0.0259,-0.0259,-0.023,-0.022,-0.0207,-0.0148,-0.0137,0,0,-0.0154,-0.0166,-0.0157,-0.0186,-0.0175,-0.0219,-0.0204,-0.0228,-0.0249,-0.0253,-0.0253,-0.0228,-0.0219,-0.0206,-0.0109,-0.0099,0,0,0,-0.0139,-0.0133,-0.0134,-0.0138,-0.0153,-0.0168,-0.0194,-0.0208,-0.0222,-0.025,-0.0223,-0.0218,-0.0211,-0.0178,-0.017,-0.0234,-0.0256,-0.0256,-0.0256,-0.0071,-0.009,-0.0075,-0.0097,-0.01,-0.0129,-0.0142,-0.0167,-0.0186,-0.0188,-0.0188,-0.0152,-0.0115,-0.0109,-0.0175,-0.0183,-0.0183,-0.0183,-0.0183,-0.0026,-0.0022,-0.0043,-0.0039,-0.0062,-0.0059,-0.0094,-0.0117,-0.0131,-0.0154,-0.0149,-0.0141,-0.0098,-0.0172,-0.0181,-0.0181,-0.0182,-0.0182,-0.0182,0.0012,0.0009,0.0005,-0.0002,-0.0002,-0.0028,-0.0022,-0.0061,-0.0099,-0.0099,-0.007,-0.007,-0.0139,-0.0096,-0.0095,-0.0095,-0.0095,-0.0095,-0.0095,0.0045,0.004,0.0042,0.0032,0.0035,0.0039,0.0017,0.0014,-0.0003,-0.003,-0.0029,-0.0126,-0.0125,-0.0134,-0.0093,-0.0093,-0.0094,-0.0094,-0.0094,0.0081,0.0066,0.0082,0.0084,0.0095,0.015,0.0122,0.0146,0.0118,0.0124,-0.0027,0.0005,-0.0002,-0.0008,-0.0014,0.0056,0.0056,0.0056,0.0056,0.0101,0.0093,0.0123,0.0142,0.0173,0.0204,0.0304,0.0302,0.017,0.0083,-0.0003,-0.0017,-0.0021,-0.0032,-0.0037,-0.0045,0.0015,0.0015,0.0015,0.0117,0.0129,0.0164,0.0177,0.0214,0.0295,0.0411,0.0432,0.0195,0.0002,-0.0106,-0.0104,-0.0139,-0.0139,-0.0168,-0.0171,-0.0188,0,0]}],[{"header":{"parameterUnit":"m.s-1","parameterCategory":2,"la1":30.2992,"la2":30.254,"lo1":-89.0895,"lo2":-89.0443,"dy":0.0025,"dx":0.0025,"nx":19,"ny":19,"refTime":"2026-05-08T21:00:00:Z","depth":"2","parameterNumber":2,"parameterNumberName":"U-component_of_CURRENTS"},"data":[0,0,0,0.1272,0.1272,0.1293,0.1293,0.129,0.129,0,0,0,0,0,0,0,0,0,0,0,0.1257,0.1257,0.1272,0.1273,0.1293,0.1293,0.129,0.129,0,0,0,0,0,0,0,0,0,0,0,0.1257,0.1257,0.1258,0.1273,0.1293,0.1293,0.129,0.128,0,0,0,0,0,0,0,0,0,0,0.1262,0.1252,0.1257,0.1258,0.1273,0.1293,0.1293,0.1279,0.128,0.1276,0,0.1283,0,0.1294,0.1291,0.1291,0,0,0,0.1262,0.1251,0.1265,0.1258,0.1273,0.1293,0.1281,0.128,0.1281,0.1277,0.1283,0.1283,0.1294,0.1291,0.1291,0.1324,0.1324,0,0,0.1261,0.1252,0.1264,0.1266,0.1283,0.128,0.1282,0.1281,0.1278,0.1283,0.1283,0.1294,0.1291,0.1291,0.1323,0.1324,0,0,0,0.1265,0.1251,0.1265,0.1265,0.1276,0.1281,0.1283,0.1278,0.1285,0.1284,0.1294,0.1291,0.1291,0.1323,0.1323,0.1356,0,0,0,0.1263,0.1254,0.1264,0.1258,0.1276,0.1281,0.128,0.1285,0.1286,0.1294,0.1291,0.1291,0.1322,0.1323,0.1354,0.1372,0,0,0,0.1256,0.1253,0.1259,0.1257,0.1273,0.1281,0.1287,0.1285,0.1292,0.1291,0.1291,0.1322,0.1323,0.1352,0.137,0.1414,0,0,0,0.1241,0.1243,0.1258,0.1266,0.1273,0.1294,0.1288,0.1297,0.1297,0.1291,0.1322,0.1323,0.1352,0.1368,0.1412,0.1392,0.14,0,0,0.1235,0.1242,0.1248,0.1263,0.1283,0.129,0.1315,0.1313,0.1309,0.1318,0.1319,0.1355,0.1369,0.1413,0.1439,0.1446,0,0,0,0.1241,0.1245,0.1253,0.1271,0.1291,0.1321,0.1323,0.1335,0.1353,0.1316,0.1362,0.1371,0.1398,0.1381,0.1387,0.1327,0.1327,0.1327,0.1327,0.1207,0.1233,0.1248,0.1283,0.1303,0.1342,0.1368,0.1387,0.1371,0.1392,0.1403,0.1466,0.1448,0.1452,0.1407,0.1407,0.1407,0.1407,0.1407,0.1203,0.1211,0.1255,0.128,0.1325,0.1354,0.1413,0.1424,0.1474,0.1445,0.1469,0.1422,0.146,0.141,0.1409,0.1409,0.1409,0.1408,0.1408,0.1175,0.1185,0.1212,0.126,0.1311,0.1365,0.1419,0.1469,0.1506,0.1536,0.1525,0.1524,0.1491,0.1551,0.1551,0.1551,0.1551,0.1552,0.1552,0.113,0.1163,0.1177,0.1239,0.126,0.1322,0.1423,0.1471,0.1548,0.1567,0.1567,0.1515,0.151,0.15,0.1556,0.1555,0.1555,0.1554,0.1554,0.1084,0.1105,0.1115,0.1132,0.1191,0.1221,0.1331,0.1444,0.1531,0.1568,0.159,0.1588,0.158,0.1574,0.1566,0.1636,0.1636,0.1636,0.1636,0.1039,0.1058,0.1036,0.1037,0.1071,0.1158,0.1224,0.1376,0.1514,0.1548,0.1551,0.1497,0.1497,0.148,0.1477,0.1465,0.1509,0.1509,0.1509,0.1001,0.1003,0.0951,0.0966,0.0992,0.1075,0.1155,0.1257,0.1332,0.1501,0.1497,0.1634,0.1562,0.1558,0.1536,0.153,0.1512,0,0]},{"header":{"parameterUnit":"m.s-1","parameterCategory":2,"la1":30.2992,"la2":30.254,"lo1":-89.0895,"lo2":-89.0443,"dy":0.0025,"dx":0.0025,"nx":19,"ny":19,"refTime":"2026-05-08T21:00:00:Z","depth":"2","parameterNumber":3,"parameterNumberName":"V-component_of_CURRENTS"},"data":[0,0,0,-0.0237,-0.0237,-0.0275,-0.0275,-0.0298,-0.0299,0,0,0,0,0,0,0,0,0,0,0,-0.0219,-0.0219,-0.0236,-0.0237,-0.0275,-0.0275,-0.0298,-0.0299,0,0,0,0,0,0,0,0,0,0,0,-0.0219,-0.0219,-0.0219,-0.0237,-0.0275,-0.0275,-0.0298,-0.0277,0,0,0,0,0,0,0,0,0,0,-0.0244,-0.0225,-0.0219,-0.0219,-0.0238,-0.0275,-0.0275,-0.0276,-0.0278,-0.0273,0,-0.0274,0,-0.0286,-0.0299,-0.0299,0,0,0,-0.0241,-0.0223,-0.0238,-0.0219,-0.0238,-0.0275,-0.0259,-0.0278,-0.028,-0.0275,-0.0275,-0.0276,-0.0287,-0.0299,-0.0299,-0.028,-0.028,0,0,-0.0239,-0.0222,-0.0237,-0.024,-0.0241,-0.0258,-0.026,-0.0279,-0.0275,-0.0275,-0.0277,-0.0287,-0.0299,-0.0299,-0.0281,-0.028,0,0,0,-0.023,-0.0221,-0.0236,-0.0238,-0.0247,-0.0259,-0.0262,-0.0274,-0.0281,-0.0277,-0.0287,-0.0299,-0.0299,-0.0281,-0.0281,-0.0248,0,0,0,-0.0229,-0.0216,-0.0235,-0.0225,-0.0247,-0.0263,-0.0256,-0.0279,-0.0282,-0.0287,-0.0299,-0.03,-0.0281,-0.0281,-0.025,-0.0236,0,0,0,-0.0219,-0.0215,-0.0218,-0.0224,-0.024,-0.0264,-0.0271,-0.028,-0.0288,-0.0299,-0.03,-0.0282,-0.0281,-0.0251,-0.0239,-0.0225,0,0,0,-0.0202,-0.0187,-0.0218,-0.0203,-0.024,-0.024,-0.0271,-0.0275,-0.028,-0.0299,-0.0281,-0.0281,-0.0251,-0.024,-0.0226,-0.0168,-0.0157,0,0,-0.0171,-0.0182,-0.0174,-0.0203,-0.0192,-0.0236,-0.0222,-0.0247,-0.0269,-0.0275,-0.0275,-0.0249,-0.0239,-0.0225,-0.013,-0.012,0,0,0,-0.0156,-0.015,-0.0152,-0.0156,-0.0172,-0.0187,-0.0213,-0.0228,-0.0243,-0.027,-0.0245,-0.024,-0.0232,-0.0199,-0.0191,-0.0278,-0.0278,-0.0278,-0.0278,-0.009,-0.0108,-0.0094,-0.0116,-0.012,-0.0149,-0.0162,-0.0187,-0.0207,-0.021,-0.021,-0.0173,-0.0136,-0.013,-0.0206,-0.0206,-0.0205,-0.0205,-0.0205,-0.0045,-0.0041,-0.0062,-0.0058,-0.0081,-0.0079,-0.0115,-0.0137,-0.0152,-0.0176,-0.017,-0.0162,-0.0119,-0.0203,-0.0203,-0.0204,-0.0204,-0.0204,-0.0204,-0.0006,-0.0009,-0.0014,-0.002,-0.002,-0.0046,-0.004,-0.008,-0.0119,-0.0118,-0.0089,-0.0089,-0.0158,-0.0114,-0.0114,-0.0114,-0.0114,-0.0114,-0.0114,0.0029,0.0023,0.0026,0.0015,0.0019,0.0023,0.0,-0.0002,-0.002,-0.0048,-0.0047,-0.0142,-0.0145,-0.0153,-0.0112,-0.0112,-0.0113,-0.0113,-0.0113,0.0067,0.0052,0.0068,0.0071,0.0082,0.0123,0.0106,0.0129,0.0103,0.0109,-0.001,-0.0013,-0.002,-0.0026,-0.0031,0.004,0.004,0.004,0.004,0.0089,0.008,0.011,0.0129,0.0161,0.0173,0.0245,0.0227,0.0165,0.0106,0.0102,0.0098,0.0091,0.0089,0.008,0.0076,0.0174,0.0174,0.0175,0.0107,0.0119,0.0152,0.0164,0.0201,0.025,0.0304,0.0243,0.015,0.0176,0.009,0.0056,0.0041,0.0033,0.002,0.0009,-0.0001,0,0]}],[{"header":{"parameterUnit":"m.s-1","parameterCategory":2,"la1":30.2992,"la2":30.254,"lo1":-89.0895,"lo2":-89.0443,"dy":0.0025,"dx":0.0025,"nx":19,"ny":19,"refTime":"2026-05-08T21:00:00:Z","depth":"4","parameterNumber":2,"parameterNumberName":"U-component_of_CURRENTS"},"data":[0,0,0,0.1008,0.101,0.1083,0.1083,0.1128,0.1129,0,0,0,0,0,0,0,0,0,0,0,0.0988,0.0989,0.1008,0.101,0.1083,0.1083,0.1128,0.1129,0,0,0,0,0,0,0,0,0,0,0,0.0988,0.0988,0.0989,0.1011,0.1083,0.1083,0.1128,0.1085,0,0,0,0,0,0,0,0,0,0,0.102,0.1013,0.0988,0.0989,0.1011,0.1083,0.1083,0.1083,0.1087,0.1082,0,0.1103,0,0.1115,0.1131,0.1131,0,0,0,0.1008,0.1009,0.1025,0.0989,0.1012,0.1083,0.1049,0.1086,0.109,0.1088,0.1104,0.1106,0.1116,0.1131,0.1131,0.1181,0.1181,0,0,0.1004,0.1002,0.1022,0.1028,0.1042,0.1047,0.1052,0.1089,0.11,0.1104,0.1107,0.1117,0.1131,0.1131,0.1181,0.1181,0,0,0,0.0994,0.0999,0.1015,0.1026,0.1042,0.1049,0.1055,0.1099,0.1103,0.1108,0.1117,0.1131,0.1132,0.118,0.1181,0.1212,0,0,0,0.0991,0.0994,0.1014,0.1013,0.1042,0.1079,0.1063,0.1101,0.1106,0.1117,0.1131,0.1132,0.118,0.1181,0.121,0.1215,0,0,0,0.0982,0.0993,0.1004,0.1013,0.1045,0.1079,0.1086,0.1102,0.1111,0.1131,0.1132,0.118,0.1181,0.1209,0.1213,0.1301,0,0,0,0.0973,0.0992,0.1004,0.1031,0.1044,0.1081,0.1086,0.1123,0.1143,0.1131,0.118,0.1181,0.1208,0.1212,0.1298,0.1056,0,0,0,0.0985,0.0993,0.1007,0.102,0.1052,0.107,0.1108,0.1141,0.115,0.1163,0.1165,0.1211,0.1213,0.13,0.1101,0,0,0,0,0.1002,0.1012,0.1024,0.1052,0.1079,0.1108,0.1141,0.116,0.12,0.1167,0.1217,0.1217,0.1272,0.1123,0.1184,0.1184,0.1184,0.1184,0.1184,0.1,0.1018,0.1039,0.1066,0.1094,0.1141,0.1172,0.1203,0.1213,0.1243,0.1248,0.1338,0.1179,0.1257,0.1258,0.1258,0.1258,0.1258,0.1258,0.0995,0.0995,0.1039,0.1067,0.1108,0.1149,0.1202,0.1231,0.131,0.1282,0.1335,0.1169,0.1261,0.1261,0.126,0.126,0.1259,0.1259,0.1259,0.0971,0.0969,0.1009,0.1048,0.1108,0.1159,0.121,0.1278,0.1338,0.1382,0.128,0.138,0.1375,0.1442,0.1443,0.1443,0.1443,0.1444,0.1444,0.0911,0.0948,0.0969,0.1024,0.1066,0.112,0.1241,0.1271,0.1357,0.1291,0.142,0.1401,0.1395,0.1387,0.145,0.1449,0.1448,0.1448,0.1447,0.084,0.0871,0.0905,0.0943,0.1012,0.1043,0.1174,0.1191,0.1255,0.1223,0.1255,0.1263,0.1241,0.124,0.1226,0.1244,0.1241,0.1238,0,0.0778,0.0796,0.085,0.0899,0.0914,0.0993,0.0968,0.1019,0.1106,0.1089,0.1279,0.1319,0.1321,0.1298,0.1292,0.1275,0,0,0,0.0715,0.0762,0.0787,0.0863,0.0881,0.0873,0.0954,0.0943,0.1087,0.1009,0.1167,0.1185,0.1259,0.1469,0.1456,0.1449,0.1437,0,0]},{"header":{"parameterUnit":"m.s-1","parameterCategory":2,"la1":30.2992,"la2":30.254,"lo1":-89.0895,"lo2":-89.0443,"dy":0.0025,"dx":0.0025,"nx":19,"ny":19,"refTime":"2026-05-08T21:00:00:Z","depth":"4","parameterNumber":3,"parameterNumberName":"V-component_of_CURRENTS"},"data":[0,0,0,-0.0085,-0.0086,-0.0129,-0.0129,-0.02,-0.02,0,0,0,0,0,0,0,0,0,0,0,-0.0073,-0.0073,-0.0085,-0.0086,-0.0129,-0.0129,-0.0199,-0.02,0,0,0,0,0,0,0,0,0,0,0,-0.0073,-0.0073,-0.0073,-0.0086,-0.0129,-0.0129,-0.0199,-0.0165,0,0,0,0,0,0,0,0,0,0,-0.0122,-0.0106,-0.0073,-0.0073,-0.0086,-0.0129,-0.0129,-0.0163,-0.0167,-0.0182,0,-0.0185,0,-0.0191,-0.0204,-0.0205,0,0,0,-0.0094,-0.0102,-0.0112,-0.0073,-0.0087,-0.0129,-0.0112,-0.0165,-0.017,-0.0187,-0.0186,-0.0189,-0.0192,-0.0205,-0.0205,-0.0256,-0.0256,0,0,-0.0091,-0.0085,-0.0109,-0.0114,-0.0094,-0.011,-0.0113,-0.0168,-0.0172,-0.0187,-0.019,-0.0193,-0.0205,-0.0206,-0.0256,-0.0256,0,0,0,-0.0079,-0.0083,-0.0091,-0.0112,-0.0116,-0.0112,-0.0115,-0.017,-0.0172,-0.0191,-0.0194,-0.0206,-0.0206,-0.0256,-0.0256,-0.0198,0,0,0,-0.0078,-0.0075,-0.009,-0.0087,-0.0115,-0.0142,-0.0116,-0.0169,-0.0175,-0.0193,-0.0206,-0.0207,-0.0256,-0.0256,-0.0199,-0.0143,0,0,0,-0.0071,-0.0075,-0.0078,-0.0086,-0.0101,-0.0141,-0.0146,-0.017,-0.0176,-0.0205,-0.0207,-0.0256,-0.0256,-0.02,-0.0147,-0.0097,0,0,0,-0.0065,-0.0075,-0.0078,-0.0091,-0.01,-0.0125,-0.0146,-0.0173,-0.0196,-0.0206,-0.0256,-0.0256,-0.0201,-0.0149,-0.01,-0.0114,0,0,0,-0.0075,-0.0076,-0.0084,-0.0087,-0.0098,-0.012,-0.013,-0.0169,-0.0204,-0.024,-0.0241,-0.0198,-0.0147,-0.0098,-0.0125,0,0,0,0,-0.0085,-0.0084,-0.0091,-0.0096,-0.0116,-0.0102,-0.015,-0.0162,-0.0192,-0.0217,-0.0219,-0.0188,-0.0158,-0.0176,-0.0257,-0.0257,-0.0257,-0.0257,-0.0257,-0.0077,-0.0083,-0.0077,-0.008,-0.0087,-0.0101,-0.0095,-0.012,-0.0179,-0.0182,-0.0156,-0.0097,-0.0118,-0.0192,-0.0192,-0.0192,-0.0191,-0.0191,-0.0191,-0.0054,-0.0029,-0.0035,-0.0027,-0.0017,-0.0021,-0.0029,-0.0055,-0.0058,-0.012,-0.0095,-0.0135,-0.0186,-0.0187,-0.0188,-0.0188,-0.0189,-0.0189,-0.0189,-0.0018,0.0003,0.0001,0.0039,0.0068,0.006,0.0107,0.0074,0.0022,0.0038,0.0008,-0.0045,-0.0029,0.0037,0.0038,0.0038,0.0038,0.0039,0.0039,0.0045,0.0047,0.0088,0.0121,0.0144,0.0183,0.0188,0.0188,0.0144,0.0096,0.0057,-0.002,-0.0027,-0.0016,0.0046,0.0045,0.0044,0.0043,0.0043,0.0114,0.0126,0.0165,0.0194,0.0241,0.026,0.0287,0.0263,0.0269,0.0247,0.0124,0.0118,0.0107,0.0097,0.0111,0.0215,0.0215,0.0215,0,0.0175,0.0184,0.0205,0.0225,0.0265,0.0285,0.0304,0.0296,0.0243,0.0218,0.0247,0.0107,0.0102,0.0085,0.0076,0.0091,0,0,0,0.0231,0.0216,0.0207,0.0199,0.023,0.0259,0.029,0.0269,0.0262,0.0268,0.0218,0.0217,0.0137,0.0067,0.0036,0.0027,0.0043,0,0]}]]